| time (UTC) | temp F | wind direction | speed MPH | gust MPH | rain 1hr in | rain 24hr in | rain mn in | humidity % | barometer mb |
| 20260505030532 | 40 | 293 | 2.0 | 8.0 | 0.00 | 0.00 | 0.00 | 15 | 998.7 |
| 20260505025533 | 40 | 0.0 | 0.0 | 0.00 | 0.00 | 0.00 | 20 | 997.9 | |
| 20260505024531 | 39 | 0.0 | 0.0 | 0.00 | 0.00 | 0.00 | 25 | 998.1 | |
| 20260505023531 | 39 | 0.0 | 0.0 | 0.00 | 0.00 | 0.00 | 28 | 998.3 | |
| 20260505022530 | 40 | 293 | 1.0 | 4.0 | 0.00 | 0.00 | 0.00 | 29 | 998.6 |
| 20260505021550 | 40 | 293 | 1.0 | 3.0 | 0.00 | 0.00 | 0.00 | 34 | 998.3 |
| 20260505020532 | 40 | 0.0 | 0.0 | 0.00 | 0.00 | 0.00 | 36 | 998.2 | |
| 20260505015531 | 40 | 0.0 | 0.0 | 0.00 | 0.00 | 0.00 | 38 | 998.4 | |
| 20260505014530 | 40 | 0.0 | 3.0 | 0.00 | 0.00 | 0.00 | 41 | 998.9 | |
| 20260505013531 | 40 | 293 | 1.0 | 4.0 | 0.00 | 0.00 | 0.00 | 42 | 999.0 |
| 20260505012530 | 41 | 0.0 | 0.0 | 0.00 | 0.00 | 0.00 | 43 | 999.3 | |
| 20260505011531 | 41 | 0.0 | 0.0 | 0.00 | 0.00 | 0.00 | 43 | 999.4 | |
| 20260505010550 | 41 | 293 | 1.0 | 5.0 | 0.00 | 0.00 | 0.00 | 39 | 999.4 |
| 20260505005530 | 41 | 293 | 1.0 | 4.0 | 0.00 | 0.00 | 0.00 | 33 | 999.4 |
| 20260505004531 | 41 | 0.0 | 3.0 | 0.00 | 0.00 | 0.00 | 32 | 999.4 | |
| 20260505003611 | 41 | 0.0 | 2.0 | 0.00 | 0.00 | 0.00 | 39 | 999.2 | |
| 20260505002530 | 42 | 293 | 1.0 | 7.0 | 0.00 | 0.00 | 0.00 | 35 | 999.5 |
| 20260505001532 | 42 | 293 | 2.0 | 8.0 | 0.00 | 0.00 | 0.00 | 31 | 999.4 |
| 20260505000530 | 42 | 293 | 3.0 | 9.0 | 0.00 | 0.00 | 0.00 | 22 | 999.6 |
| 20260504235531 | 43 | 270 | 4.0 | 9.0 | 0.00 | 0.00 | 0.00 | 11 | 999.5 |
| 20260504234611 | 43 | 270 | 5.0 | 8.0 | 0.00 | 0.00 | 0.00 | 1 | 999.5 |
| 20260504233531 | 43 | 293 | 4.0 | 10.0 | 0.00 | 0.00 | 0.00 | 1 | 999.5 |
| 20260504232531 | 43 | 293 | 2.0 | 5.0 | 0.00 | 0.00 | 0.00 | 1 | 999.5 |
| 20260504231529 | 42 | 270 | 2.0 | 6.0 | 0.00 | 0.00 | 0.00 | 1 | 999.4 |
| 20260504230531 | 42 | 270 | 1.0 | 6.0 | 0.00 | 0.00 | 0.00 | 1 | 999.4 |
| 20260504225531 | 42 | 0.0 | 4.0 | 0.00 | 0.00 | 0.00 | 1 | 999.4 | |
| 20260504224531 | 42 | 0.0 | 2.0 | 0.00 | 0.00 | 0.00 | 12 | 999.4 | |
| 20260504223531 | 42 | 0.0 | 0.0 | 0.00 | 0.00 | 0.00 | 21 | 999.3 | |
| 20260504222531 | 43 | 270 | 1.0 | 4.0 | 0.00 | 0.00 | 0.00 | 28 | 999.3 |
| 20260504221531 | 43 | 0.0 | 0.0 | 0.00 | 0.00 | 0.00 | 30 | 999.4 | |
| 20260504220551 | 44 | 0.0 | 0.0 | 0.00 | 0.00 | 0.00 | 33 | 999.5 | |
| 20260504215531 | 44 | 0.0 | 2.0 | 0.00 | 0.00 | 0.00 | 34 | 999.3 | |
| 20260504214531 | 44 | 0.0 | 1.0 | 0.00 | 0.00 | 0.00 | 35 | 999.3 | |
| 20260504213631 | 45 | 0.0 | 4.0 | 0.00 | 0.00 | 0.00 | 36 | 999.5 | |
| 20260504212530 | 45 | 0.0 | 2.0 | 0.00 | 0.00 | 0.00 | 41 | 999.5 | |
| 20260504211532 | 45 | 0.0 | 0.0 | 0.00 | 0.00 | 0.00 | 48 | 999.3 | |
| 20260504210530 | 45 | 270 | 1.0 | 4.0 | 0.00 | 0.00 | 0.00 | 52 | 999.4 |
| 20260504205531 | 45 | 270 | 3.0 | 9.0 | 0.00 | 0.00 | 0.00 | 56 | 999.4 |
| 20260504204530 | 45 | 248 | 1.0 | 5.0 | 0.00 | 0.00 | 0.00 | 60 | 999.5 |
| 20260504203530 | 45 | 248 | 1.0 | 4.0 | 0.00 | 0.00 | 0.00 | 66 | 999.5 |
| 20260504202531 | 45 | 0.0 | 3.0 | 0.00 | 0.00 | 0.00 | 73 | 999.4 | |
| 20260504201531 | 45 | 0.0 | 3.0 | 0.00 | 0.00 | 0.00 | 76 | 999.3 | |
| 20260504200531 | 45 | 0.0 | 6.0 | 0.00 | 0.00 | 0.00 | 76 | 999.3 | |
| 20260504195531 | 45 | 0.0 | 3.0 | 0.00 | 0.00 | 0.00 | 76 | 999.3 | |
| 20260504194550 | 45 | 293 | 1.0 | 7.0 | 0.00 | 0.00 | 0.00 | 77 | 999.3 |
| 20260504193531 | 45 | 293 | 1.0 | 3.0 | 0.00 | 0.00 | 0.00 | 77 | 999.3 |
| 20260504192531 | 45 | 0.0 | 3.0 | 0.00 | 0.00 | 0.00 | 77 | 999.3 | |
| 20260504191532 | 45 | 248 | 1.0 | 6.0 | 0.00 | 0.00 | 0.00 | 77 | 999.2 |
| 20260504190531 | 46 | 0.0 | 0.0 | 0.00 | 0.00 | 0.00 | 77 | 999.2 | |
| 20260504185530 | 46 | 0.0 | 4.0 | 0.00 | 0.00 | 0.00 | 77 | 999.2 | |
| 20260504184531 | 46 | 0.0 | 2.0 | 0.00 | 0.00 | 0.00 | 77 | 999.3 | |
| 20260504183531 | 46 | 0.0 | 3.0 | 0.00 | 0.00 | 0.00 | 76 | 999.3 | |
| 20260504182533 | 47 | 0.0 | 2.0 | 0.00 | 0.00 | 0.00 | 75 | 999.3 | |
| 20260504181531 | 47 | 0.0 | 2.0 | 0.00 | 0.00 | 0.00 | 74 | 999.3 | |
| 20260504180531 | 47 | 270 | 1.0 | 4.0 | 0.00 | 0.00 | 0.00 | 73 | 999.2 |
| 20260504175531 | 48 | 270 | 1.0 | 3.0 | 0.00 | 0.00 | 0.00 | 72 | 999.3 |
| 20260504174531 | 48 | 0.0 | 3.0 | 0.00 | 0.00 | 0.00 | 70 | 999.2 | |
| 20260504173531 | 49 | 270 | 1.0 | 6.0 | 0.00 | 0.00 | 0.00 | 69 | 999.2 |
| 20260504172531 | 49 | 270 | 3.0 | 10.0 | 0.00 | 0.00 | 0.00 | 69 | 999.2 |
| 20260504171531 | 50 | 270 | 2.0 | 9.0 | 0.00 | 0.00 | 0.00 | 68 | 999.2 |
| 20260504170532 | 50 | 248 | 1.0 | 4.0 | 0.00 | 0.00 | 0.00 | 67 | 999.3 |
| 20260504150533 | 54 | 270 | 2.0 | 6.0 | 0.00 | 0.00 | 0.00 | 59 | 999.2 |
| 20260504140533 | 54 | 248 | 2.0 | 9.0 | 0.00 | 0.00 | 0.00 | 57 | 999.7 |
| 20260504130532 | 54 | 180 | 2.0 | 8.0 | 0.00 | 0.00 | 0.00 | 54 | 1000.0 |
| 20260504110531 | 49 | 180 | 2.0 | 7.0 | 0.00 | 0.00 | 0.00 | 55 | 1001.2 |
| 20260504100531 | 49 | 203 | 2.0 | 7.0 | 0.00 | 0.00 | 0.00 | 62 | 1002.4 |
| 20260504081532 | 49 | 180 | 1.0 | 5.0 | 0.00 | 0.00 | 0.00 | 62 | 1002.9 |
| 20260504080529 | 48 | 180 | 2.0 | 5.0 | 0.00 | 0.00 | 0.00 | 63 | 1002.9 |
| 20260504050530 | 42 | 0.0 | 0.0 | 0.00 | 0.00 | 0.00 | 73 | 1004.4 | |
| 20260504045529 | 41 | 0.0 | 0.0 | 0.00 | 0.00 | 0.00 | 76 | 1004.5 | |
| 20260504044529 | 40 | 0.0 | 0.0 | 0.00 | 0.00 | 0.00 | 77 | 1004.6 | |
| 20260504043529 | 39 | 0.0 | 0.0 | 0.00 | 0.00 | 0.00 | 78 | 1004.8 | |
| 20260504042529 | 38 | 0.0 | 0.0 | 0.00 | 0.00 | 0.00 | 78 | 1004.9 | |
| 20260504041529 | 37 | 0.0 | 0.0 | 0.00 | 0.00 | 0.00 | 78 | 1005.0 | |
| 20260504040530 | 36 | 0.0 | 0.0 | 0.00 | 0.00 | 0.00 | 76 | 1005.1 | |
| 20260504035530 | 35 | 0.0 | 0.0 | 0.00 | 0.00 | 0.00 | 73 | 1004.9 | |
| 20260504034550 | 34 | 0.0 | 0.0 | 0.00 | 0.00 | 0.00 | 69 | 1005.0 | |
| 20260504033550 | 33 | 0.0 | 0.0 | 0.00 | 0.00 | 0.00 | 65 | 1005.1 | |
| 20260504032530 | 32 | 0.0 | 0.0 | 0.00 | 0.00 | 0.00 | 60 | 1005.2 | |
| 20260504031530 | 31 | 0.0 | 0.0 | 0.00 | 0.00 | 0.00 | 65 | 1005.2 |